Вернуться в каталог

NIMBUS 2 DEB

АктивенLEO
NORAD 28618·DEBRIS·🇺🇸 United States

Запущен May 15, 1966 с Vandenberg Space Force Base

Loading…

Ближайшие Пролёты (ближайшие 24 часа)

TLE

УстаревшееSource: Space-Track

Эпоха: Sep 7, 2026, 08:02 UTC

1 28618U 66040AH  26250.33529463  .00003547  00000-0  24634-2 0  9991
2 28618 100.2521  87.8301 0033837 260.0884 275.9610 13.99352099660986

Отслеживайте NIMBUS 2 DEB в реальном времени с AllMySat

Download on the App Store